Regional Weather Roundup
Issued by NWS

Home | Current Version | Previous Version | Text Only | Print | Product List | Glossary Off
Versions: 1 2 3 4 5 6 7 8 9 10 11 12 13 14 15 16 17 18 19 20 21 22 23 24 25 26 27 28 29 30 31 32 33 34 35 36 37 38 39 40 41 42 43 44 45 46 47 48 49 50

000
ASUS43 KLSX 212107
RWRMO

WEATHER SUMMARY FOR MISSOURI
NATIONAL WEATHER SERVICE SPRINGFIELD MO
300 PM CST SUN DEC 21 2014

NOTE: "FAIR" INDICATES FEW OR NO CLOUDS BELOW 12,000 FEET WITH NO
       SIGNIFICANT WEATHER AND/OR OBSTRUCTIONS TO VISIBILITY.
       CURRENT SKY AND/OR WEATHER CONDITIONS ARE NOT AVAILABLE FOR
       CHILLICOTHE AND FARMINGTON.

MOZ001>031-035>038-043-044-053-054-212200-
...NORTHERN AND WESTERN MISSOURI...

CITY           SKY/WX    TMP DP  RH WIND       PRES   REMARKS
KANSAS CTY INT CLOUDY    44  39  82 S12       29.84F
KANSAS C DTWN  CLOUDY    47  39  74 S10       29.85F
LEE`S SUMMIT   CLOUDY    45  39  79 S14       29.87F
ST JOSEPH      CLOUDY    44  39  82 S14       29.83F
CHILLICOTHE      N/A     46  39  76 S12       29.89F
KIRKSVILLE     CLOUDY    44  39  82 S14       29.91F

$$
MOZ066>068-077>081-088>096-101>105-212200-
...SOUTHWEST MISSOURI...

CITY           SKY/WX    TMP DP  RH WIND       PRES   REMARKS
SPRINGFIELD    CLOUDY    42  36  79 S16       29.92S
JOPLIN         CLOUDY    48  38  68 S16       29.89F

$$
MOZ032>034-039>042-045>050-055>058-069>072-212200-
...CENTRAL MISSOURI...

CITY           SKY/WX    TMP DP  RH WIND       PRES   REMARKS
COLUMBIA       CLOUDY    43  38  82 S14       29.95F
JEFFERSON CITY CLOUDY    45  37  73 SE12      29.97F
ROLLA          CLOUDY    39  35  86 S12       29.97F
SEDALIA        CLOUDY    45  39  79 S15       29.91F
WHITEMAN AFB   CLOUDY    44  40  86 S14       29.89F
WARRENSBURG    CLOUDY    43  41  93 SE8       29.89F
OSAGE BEACH    CLOUDY    45  36  70 S8G16     29.95F

$$
MOZ051-052-059>065-212200-
...EAST CENTRAL MISSOURI...

CITY           SKY/WX    TMP DP  RH WIND       PRES   REMARKS
ST LOUIS INTL  CLOUDY    44  32  62 SE13      30.04F
SPIRIT OF STL  CLOUDY    43  33  68 S8        30.03F
ST CHARLES     CLOUDY    43  33  68 SE14      30.04F

$$
MOZ072>076-082>087-097>100-106>115-212200-
...SOUTH CENTRAL AND SOUTHEAST MISSOURI...

CITY           SKY/WX    TMP DP  RH WIND       PRES   REMARKS
CAPE GIRARDEAU CLOUDY    46  33  60 SE6       30.07F
FARMINGTON     CLOUDY    41  32  70 E7        30.05F
POPLAR BLUFF   CLOUDY    43  32  65 E3        30.06F
WEST PLAINS    CLOUDY    41  33  73 SE7       30.00F

$$


USA.gov is the U.S. government's official web portal to all federal, state and local government web resources and services.